Location: Baller�as
(41.9020°N, 0.1554°W)
Time: 10:50:17
(UTC+00:00)

SJ-6B - Pass Details

Date: 10 August 2020
Orbit: 509 x 582 km, 97.6° (Epoch: 21 September)

Event Time Altitude Azimuth Distance (km) Brightness Sun altitude
Rises 19:46:47 0° 166° (SSE) 2,776 6.0 -7.5°
Reaches altitude 10° 19:48:56 10° 166° (SSE) 1,875 5.1 -7.8°
Maximum altitude 19:53:00 89° 87° (E) 573 2.9 -8.5°
Drops below altitude 10° 19:57:02 10° 348° (NNW) 1,854 6.2 -9.2°
Sets 19:59:09 0° 348° (NNW) 2,742 7.1 -9.5°
